一网星座-0170星 (ONEWEB-0170 )

导读 | 星芒AI

ONEWEB-0170 是 OneWeb 卫星通信公司发射的低轨通信卫星之一,属于其全球宽带互联网星座计划的一部分。该卫星运行在约 1200 公里的近地轨道,旨在为全球用户提供高速、低延迟的互联网服务,特别是在航空、航海和偏远地区。ONEWEB-0170 采用先进通信技术,支持 Ku 波段和 Ka 波段传输,有助于实现 OneWeb 的全球覆盖目标。该卫星的发射进一步增强了 OneWeb 的星座规模和网络能力。

基本信息
目录编号:
48067
目录名称:
ONEWEB-0170
国际标识:
2021-025AB
轨道中心:
EARTH
卫星名称:
一网星座-0170星
卫星全名:
一网星座-0170星 (ONEWEB-0170 )
卫星状态:
在轨 (已飞行1726 天)
发射日期:
2021-03-25 UTC
国别 :
英国 (GB)
星等 :
--
轨道信息
数据来源 国际轨道数据 AOE轨道数据
星历时间 2025-12-15T01:32:49+0800
1天前
查看轨道信息
2025-12-12T21:00:00+0800
3天前
查看轨道信息
半长轴 7587.897km 7587.887km
偏心率 0.0002146 0.0001855
轨道倾角 87.898° 87.898°
近地点辐角 82.731° 87.538°
升交点赤经 356.886° 357.321°
平近点角 277.406° 5.657°
近地点 1208.133km 1208.344km
远地点 1211.391km 1211.16km
周期 109.633分钟 109.633分钟
每日圈数 13.134715 13.134741
详细信息
平衡模式:
三轴稳定
覆盖范围:
全球
运营商:
一网卫星公司
运营商所在国:
英国
制造商(研发单位):
一网卫星公司
制造商所在国:
英国
使用方式:
暂无
卫星简介
OneWeb卫星网络由648颗重约125公斤的微型卫星组成,运行在1200公里的轨道上。 每颗卫星都能够提供至少每秒8千兆位的吞吐量,以使用其高吞吐量的Ku频段有效载荷为家庭和移动平台提供互联网接入。该卫星仍在工作。
2D轨道图
3D轨道图
轨道高度分析图
轨道倾角分析图
轨道综合分析图
查看轨道综合分析图